Погода в Смолино

Украина / Кировоградская область     48°36′05″N   31°17′40″E
темп.,
°C
ветер,
м/с
пор.,
м/с
влажн.,
%
обл.,
%
осадки,
мм/ч
давл.,
гПа
погр.,
м
16 апреля, пт
пт1600:00+6юз229159 0.0 101134
03:00+6юз239410 0.0 101137
06:00+7зюз3492100 0.4 1011223
09:00+7юз3394100 1.2 1012314
12:00+5ююз6693100 5.3 1013676
15:00+3ююз5898100 7.9 1014466
18:00+3юз4998100 4.4 1015545
21:00+5з6995100 7.3 1015859
17 апреля, сб
сб1700:00+5з4886100 1.2 1017626
03:00+4з598986 1.2 1018458
06:00+3з378997 0.0 1019185
09:00+6з587991 0.0 1020903
12:00+8з4667100 0.0 10201265
15:00+10зюз3563100 0.2 10201300
18:00+10зсз2268100 0.1 1019366
21:00+8с2279100 0.2 102016
18 апреля, вс
вс1800:00+8св0182100 0.0 101911
03:00+5ссз349428 0.0 101984
06:00+3сз2292100 0.0 101923
09:00+7зсз2371100 0.0 1019350
12:00+12зюз445879 0.0 10181001
15:00+14з444845 0.0 10171679
18:00+14сз3349100 0.0 10161491
21:00+11с2258100 0.0 101716
19 апреля, пн
пн1900:00+9св3480100 0.0 1017105
03:00+7св3592100 0.0 1016123
06:00+6ссв4794100 0.0 1016195
09:00+8св4574100 0.0 1016417
12:00+13всв3359100 0.0 10151059
15:00+14св4452100 0.1 10121541
18:00+12св6963100 0.0 1009666
21:00+10св81468100 0.0 1007570
20 апреля, вт
вт2000:00+8св81486100 2.1 1004558
03:00+8св91694100 6.9 998738
06:00+9всв71297100 11.6 995718
09:00+9ю4591100 15.1 994419
12:00+9зюз3488100 0.6 993387
15:00+8сз6992100 1.9 994749
18:00+7зсз81490100 2.4 9971242
21:00+8з101586100 3.6 10001341